Location: Unspecified
(0.0000°N, 0.0000°E)
Time: 21:01:56
(UTC+00:00)

Vanguard 2 - Visible Passes

Search period start: 19 April 2018 00:00
Search period end: 29 April 2018 00:00
Orbit: 553 x 2939 km, 32.9° (Epoch: 18 April)

Date Brightness Start Highest point End Pass type
(mag) Time Alt. Az. Time Alt. Az. Time Alt. Az.
19 Apr 9.5 19:19:23 10° SW 19:35:23 85° NW 19:42:57 22° NE visible
19 Apr 10.6 21:36:22 10° W 21:44:27 24° NW 21:44:27 24° NW visible
20 Apr 9.8 19:38:05 10° WSW 19:53:32 65° NW 20:00:59 20° NE visible
20 Apr 10.9 21:57:16 10° WNW 22:02:30 16° NW 22:02:30 16° NW visible
21 Apr 10.2 19:57:10 10° WSW 20:11:34 48° NW 20:19:02 18° NNE visible
22 Apr 9.8 04:54:17 10° N 04:56:57 15° NE 05:00:05 10° ENE visible
22 Apr 10.1 18:00:47 10° SW 18:18:33 84° SE 18:30:39 10° ENE visible
22 Apr 10.6 20:16:44 10° W 20:29:36 35° NW 20:37:03 14° NNE visible
23 Apr 9.3 05:11:08 10° NNW 05:14:51 28° NE 05:19:46 10° E visible
23 Apr 10.2 18:19:16 10° WSW 18:36:50 78° NW 18:48:44 10° NE visible
23 Apr 10.9 20:36:55 10° W 20:47:43 26° NW 20:55:02 11° NNE visible
24 Apr 8.2 05:28:35 10° NW 05:32:44 53° NE 05:38:38 10° ESE visible
24 Apr 10.4 18:38:05 10° WSW 18:55:01 61° NW 19:06:35 10° NE visible
24 Apr 11.0 20:57:56 10° WNW 21:06:01 18° NW 21:12:16 10° N visible
25 Apr 10.8 18:57:17 10° WSW 19:13:11 47° NW 19:24:16 10° NNE visible
25 Apr 11.2 21:20:16 10° NW 21:24:35 12° NNW 21:28:19 10° NNW visible
26 Apr 9.3 03:59:15 14° N 04:00:47 17° NE 04:03:43 10° E visible
26 Apr 11.1 19:17:00 10° W 19:31:24 35° NW 19:41:45 10° NNE visible
27 Apr 8.4 04:17:05 23° N 04:18:47 34° NE 04:22:57 10° ESE visible
27 Apr 11.2 19:37:20 10° W 19:49:46 27° NW 19:59:04 10° NNE visible
28 Apr 7.1 04:34:55 30° NW 04:36:47 72° NE 04:41:30 10° ESE visible
28 Apr 11.3 19:58:24 10° WNW 20:08:22 20° NNW 20:16:11 10° N visible
